contact:dominique.lefevre@mio.osupytheas.fr, maurice.libes@osupytheas.fr, didier.mallarino@osupytheas.fr
Project:EMSO http://www.emso-fr.org/EMSO-France
Depth: 2436.0 m
Title:EMSO Ligure Ouest : Data MII capteur MICROCAT
DateTime_Computer,Latitude,Longitude,Temperature,Conductivity,Pressure,DateTime_Instrument
DateTime_Computer,Latitude,Longitude,degC,S m-1,dbar,DateTime_Instrument
2020-06-14T00:00:05Z,42.805,6.029,13.2980,4.60005,2470.18,2020-6-14T02:00:49Z
2020-06-14T00:03:08Z,42.805,6.029,13.2986,4.59989,2470.18,2020-6-14T02:03:52Z
2020-06-14T00:06:11Z,42.805,6.029,13.2991,4.60006,2470.203,2020-6-14T02:06:55Z
2020-06-14T00:09:14Z,42.805,6.029,13.2991,4.60003,2470.18,2020-6-14T02:09:59Z
2020-06-14T00:12:18Z,42.805,6.029,13.2993,4.59986,2470.24,2020-6-14T02:13:02Z
2020-06-14T00:15:21Z,42.805,6.029,13.2990,4.59991,2470.217,2020-6-14T02:16:05Z
2020-06-14T00:18:24Z,42.805,6.029,13.2979,4.59998,2470.203,2020-6-14T02:19:08Z
2020-06-14T00:21:27Z,42.805,6.029,13.2990,4.60007,2470.203,2020-6-14T02:22:12Z
2020-06-14T00:24:30Z,42.805,6.029,13.3021,4.60019,2470.203,2020-6-14T02:25:15Z
2020-06-14T00:27:34Z,42.805,6.029,13.3009,4.60006,2470.18,2020-6-14T02:28:18Z
2020-06-14T00:30:37Z,42.805,6.029,13.2991,4.59987,2470.227,2020-6-14T02:31:21Z
2020-06-14T00:33:40Z,42.805,6.029,13.2999,4.60039,2470.203,2020-6-14T02:34:25Z
2020-06-14T00:36:44Z,42.805,6.029,13.2998,4.60016,2470.203,2020-6-14T02:37:28Z
2020-06-14T00:39:47Z,42.805,6.029,13.2986,4.59994,2470.24,2020-6-14T02:40:31Z
2020-06-14T00:42:50Z,42.805,6.029,13.2987,4.60006,2470.203,2020-6-14T02:43:34Z
2020-06-14T00:45:53Z,42.805,6.029,13.2990,4.60003,2470.217,2020-6-14T02:46:38Z
2020-06-14T00:48:57Z,42.805,6.029,13.3000,4.60012,2470.24,2020-6-14T02:49:41Z
2020-06-14T00:52:00Z,42.805,6.029,13.3006,4.60025,2470.217,2020-6-14T02:52:44Z
2020-06-14T00:55:03Z,42.805,6.029,13.3008,4.60026,2470.217,2020-6-14T02:55:47Z
2020-06-14T00:58:06Z,42.805,6.029,13.3006,4.60035,2470.217,2020-6-14T02:58:51Z
2020-06-14T01:01:10Z,42.805,6.029,13.2998,4.59988,2470.203,2020-6-14T03:01:54Z
2020-06-14T01:04:13Z,42.805,6.029,13.2991,4.60015,2470.18,2020-6-14T03:04:57Z
2020-06-14T01:07:17Z,42.805,6.029,13.2987,4.60006,2470.203,2020-6-14T03:08:01Z
2020-06-14T01:10:20Z,42.805,6.029,13.2986,4.60033,2470.24,2020-6-14T03:11:04Z
2020-06-14T01:13:23Z,42.805,6.029,13.3014,4.60003,2470.25,2020-6-14T03:14:07Z
2020-06-14T01:16:26Z,42.805,6.029,13.2989,4.60007,2470.264,2020-6-14T03:17:11Z
2020-06-14T01:19:30Z,42.805,6.029,13.2990,4.59986,2470.24,2020-6-14T03:20:14Z
2020-06-14T01:22:33Z,42.805,6.029,13.2991,4.60024,2470.217,2020-6-14T03:23:17Z
2020-06-14T01:25:36Z,42.805,6.029,13.2996,4.59997,2470.217,2020-6-14T03:26:21Z
2020-06-14T01:28:40Z,42.805,6.029,13.2999,4.60037,2470.203,2020-6-14T03:29:24Z
2020-06-14T01:31:43Z,42.805,6.029,13.2991,4.60016,2470.227,2020-6-14T03:32:27Z
2020-06-14T01:34:46Z,42.805,6.029,13.2994,4.60033,2470.203,2020-6-14T03:35:31Z
2020-06-14T01:37:50Z,42.805,6.029,13.2985,4.60038,2470.217,2020-6-14T03:38:34Z
2020-06-14T01:40:53Z,42.805,6.029,13.2993,4.60047,2470.203,2020-6-14T03:41:37Z
2020-06-14T01:43:56Z,42.805,6.029,13.3003,4.60028,2470.203,2020-6-14T03:44:40Z
2020-06-14T01:46:59Z,42.805,6.029,13.2982,4.60029,2470.203,2020-6-14T03:47:44Z
2020-06-14T01:50:03Z,42.805,6.029,13.3004,4.60023,2470.24,2020-6-14T03:50:47Z
2020-06-14T01:53:06Z,42.805,6.029,13.2990,4.60006,2470.203,2020-6-14T03:53:50Z
2020-06-14T01:56:09Z,42.805,6.029,13.3000,4.60015,2470.25,2020-6-14T03:56:54Z
2020-06-14T01:59:12Z,42.805,6.029,13.2985,4.60004,2470.203,2020-6-14T03:59:57Z
2020-06-14T02:02:16Z,42.805,6.029,13.2979,4.60016,2470.203,2020-6-14T04:03:00Z
2020-06-14T02:05:19Z,42.805,6.029,13.2983,4.60027,2470.194,2020-6-14T04:06:03Z
2020-06-14T02:08:22Z,42.805,6.029,13.2998,4.60040,2470.217,2020-6-14T04:09:06Z
2020-06-14T02:11:26Z,42.805,6.029,13.2993,4.60015,2470.227,2020-6-14T04:12:10Z
2020-06-14T02:14:29Z,42.805,6.029,13.2990,4.60019,2470.227,2020-6-14T04:15:13Z
2020-06-14T02:17:32Z,42.805,6.029,13.3000,4.60027,2470.217,2020-6-14T04:18:16Z
2020-06-14T02:20:35Z,42.805,6.029,13.3000,4.60036,2470.227,2020-6-14T04:21:20Z
2020-06-14T02:23:38Z,42.805,6.029,13.3004,4.60029,2470.203,2020-6-14T04:24:23Z
2020-06-14T02:26:42Z,42.805,6.029,13.2987,4.60040,2470.25,2020-6-14T04:27:26Z
2020-06-14T02:29:45Z,42.805,6.029,13.3014,4.60025,2470.227,2020-6-14T04:30:29Z
2020-06-14T02:32:48Z,42.805,6.029,13.3007,4.60044,2470.203,2020-6-14T04:33:32Z
2020-06-14T02:35:51Z,42.805,6.029,13.2993,4.60051,2470.24,2020-6-14T04:36:36Z
2020-06-14T02:38:55Z,42.805,6.029,13.2999,4.60052,2470.194,2020-6-14T04:39:39Z
2020-06-14T02:41:58Z,42.805,6.029,13.3004,4.60041,2470.203,2020-6-14T04:42:42Z
2020-06-14T02:45:01Z,42.805,6.029,13.2998,4.60041,2470.203,2020-6-14T04:45:45Z
2020-06-14T02:48:04Z,42.805,6.029,13.3019,4.60042,2470.203,2020-6-14T04:48:49Z
2020-06-14T02:51:07Z,42.805,6.029,13.2998,4.60041,2470.194,2020-6-14T04:51:52Z
2020-06-14T02:54:11Z,42.805,6.029,13.2994,4.60033,2470.194,2020-6-14T04:54:55Z
2020-06-14T02:57:14Z,42.805,6.029,13.2997,4.60028,2470.217,2020-6-14T04:57:58Z
2020-06-14T03:00:17Z,42.805,6.029,13.2993,4.60045,2470.217,2020-6-14T05:01:02Z
2020-06-14T03:03:21Z,42.805,6.029,13.2995,4.60038,2470.203,2020-6-14T05:04:05Z
2020-06-14T03:06:24Z,42.805,6.029,13.3000,4.60049,2470.217,2020-6-14T05:07:08Z
2020-06-14T03:09:27Z,42.805,6.029,13.2996,4.60049,2470.156,2020-6-14T05:10:11Z
2020-06-14T03:12:30Z,42.805,6.029,13.3014,4.60039,2470.217,2020-6-14T05:13:15Z
2020-06-14T03:15:33Z,42.805,6.029,13.3006,4.60058,2470.217,2020-6-14T05:16:18Z
2020-06-14T03:18:37Z,42.805,6.029,13.3006,4.60026,2470.24,2020-6-14T05:19:21Z
2020-06-14T03:21:40Z,42.805,6.029,13.2996,4.60008,2470.217,2020-6-14T05:22:24Z
2020-06-14T03:24:43Z,42.805,6.029,13.2998,4.60044,2470.217,2020-6-14T05:25:27Z
2020-06-14T03:27:46Z,42.805,6.029,13.3004,4.60011,2470.217,2020-6-14T05:28:31Z
2020-06-14T03:30:49Z,42.805,6.029,13.2986,4.60043,2470.18,2020-6-14T05:31:34Z
2020-06-14T03:33:53Z,42.805,6.029,13.3004,4.60028,2470.18,2020-6-14T05:34:37Z
2020-06-14T03:36:56Z,42.805,6.029,13.3003,4.60036,2470.194,2020-6-14T05:37:40Z
2020-06-14T03:39:59Z,42.805,6.029,13.3015,4.60046,2470.194,2020-6-14T05:40:43Z
2020-06-14T03:43:02Z,42.805,6.029,13.3004,4.60037,2470.203,2020-6-14T05:43:47Z
2020-06-14T03:46:06Z,42.805,6.029,13.3014,4.60049,2470.18,2020-6-14T05:46:50Z
2020-06-14T03:49:09Z,42.805,6.029,13.3015,4.60029,2470.203,2020-6-14T05:49:53Z
2020-06-14T03:52:12Z,42.805,6.029,13.3011,4.60043,2470.203,2020-6-14T05:52:56Z
2020-06-14T03:55:15Z,42.805,6.029,13.3006,4.60021,2470.171,2020-6-14T05:56:00Z
2020-06-14T03:58:19Z,42.805,6.029,13.3011,4.60037,2470.18,2020-6-14T05:59:03Z
2020-06-14T04:01:22Z,42.805,6.029,13.3005,4.60033,2470.156,2020-6-14T06:02:06Z
2020-06-14T04:04:25Z,42.805,6.029,13.3007,4.60029,2470.156,2020-6-14T06:05:09Z
2020-06-14T04:07:28Z,42.805,6.029,13.2985,4.60039,2470.18,2020-6-14T06:08:12Z
2020-06-14T04:10:31Z,42.805,6.029,13.2985,4.60000,2470.171,2020-6-14T06:11:16Z
2020-06-14T04:13:35Z,42.805,6.029,13.2980,4.59999,2470.133,2020-6-14T06:14:19Z
2020-06-14T04:16:38Z,42.805,6.029,13.2983,4.59995,2470.203,2020-6-14T06:17:22Z
2020-06-14T04:19:41Z,42.805,6.029,13.2979,4.60020,2470.156,2020-6-14T06:20:25Z
2020-06-14T04:22:44Z,42.805,6.029,13.2992,4.59996,2470.203,2020-6-14T06:23:29Z
2020-06-14T04:25:47Z,42.805,6.029,13.2993,4.60033,2470.18,2020-6-14T06:26:32Z
2020-06-14T04:28:51Z,42.805,6.029,13.2974,4.60009,2470.24,2020-6-14T06:29:35Z
2020-06-14T04:31:54Z,42.805,6.029,13.2976,4.60021,2470.217,2020-6-14T06:32:38Z
2020-06-14T04:34:57Z,42.805,6.029,13.2988,4.60020,2470.194,2020-6-14T06:35:41Z
2020-06-14T04:38:00Z,42.805,6.029,13.3008,4.60029,2470.156,2020-6-14T06:38:45Z
2020-06-14T04:41:04Z,42.805,6.029,13.3018,4.60029,2470.203,2020-6-14T06:41:48Z
2020-06-14T04:44:07Z,42.805,6.029,13.3009,4.60044,2470.156,2020-6-14T06:44:51Z
2020-06-14T04:47:10Z,42.805,6.029,13.3005,4.60008,2470.156,2020-6-14T06:47:55Z
2020-06-14T04:50:14Z,42.805,6.029,13.2982,4.60029,2470.18,2020-6-14T06:50:58Z
2020-06-14T04:53:17Z,42.805,6.029,13.2983,4.60021,2470.156,2020-6-14T06:54:01Z
2020-06-14T04:56:20Z,42.805,6.029,13.3002,4.60017,2470.156,2020-6-14T06:57:04Z
2020-06-14T04:59:23Z,42.805,6.029,13.2980,4.60025,2470.147,2020-6-14T07:00:08Z
2020-06-14T05:02:26Z,42.805,6.029,13.2990,4.60010,2470.156,2020-6-14T07:03:11Z
2020-06-14T05:05:30Z,42.805,6.029,13.2985,4.60014,2470.203,2020-6-14T07:06:14Z
2020-06-14T05:08:33Z,42.805,6.029,13.2983,4.60010,2470.147,2020-6-14T07:09:17Z
2020-06-14T05:11:36Z,42.805,6.029,13.3003,4.60012,2470.194,2020-6-14T07:12:20Z
2020-06-14T05:14:39Z,42.805,6.029,13.2988,4.60029,2470.194,2020-6-14T07:15:24Z
2020-06-14T05:17:43Z,42.805,6.029,13.2990,4.60033,2470.156,2020-6-14T07:18:27Z
2020-06-14T05:20:46Z,42.805,6.029,13.2994,4.60024,2470.133,2020-6-14T07:21:30Z
2020-06-14T05:23:49Z,42.805,6.029,13.3010,4.60033,2470.171,2020-6-14T07:24:33Z
2020-06-14T05:26:52Z,42.805,6.029,13.3008,4.60019,2470.156,2020-6-14T07:27:37Z
2020-06-14T05:29:55Z,42.805,6.029,13.3000,4.60029,2470.147,2020-6-14T07:30:40Z
2020-06-14T05:32:59Z,42.805,6.029,13.3004,4.60019,2470.133,2020-6-14T07:33:43Z
2020-06-14T05:36:02Z,42.805,6.029,13.2992,4.60037,2470.147,2020-6-14T07:36:46Z
2020-06-14T05:39:05Z,42.805,6.029,13.2978,4.60033,2470.156,2020-6-14T07:39:49Z
2020-06-14T05:42:08Z,42.805,6.029,13.2981,4.60033,2470.147,2020-6-14T07:42:53Z
2020-06-14T05:45:12Z,42.805,6.029,13.2996,4.60029,2470.171,2020-6-14T07:45:56Z
2020-06-14T05:48:15Z,42.805,6.029,13.2999,4.60003,2470.147,2020-6-14T07:48:59Z
2020-06-14T05:51:18Z,42.805,6.029,13.2985,4.60037,2470.171,2020-6-14T07:52:03Z
2020-06-14T05:54:22Z,42.805,6.029,13.3003,4.60033,2470.156,2020-6-14T07:55:06Z
2020-06-14T05:57:25Z,42.805,6.029,13.2996,4.60040,2470.171,2020-6-14T07:58:09Z
2020-06-14T06:00:28Z,42.805,6.029,13.3001,4.60055,2470.147,2020-6-14T08:01:13Z
2020-06-14T06:03:31Z,42.805,6.029,13.3020,4.60059,2470.11,2020-6-14T08:04:16Z
2020-06-14T06:06:35Z,42.805,6.029,13.3000,4.60044,2470.133,2020-6-14T08:07:19Z
2020-06-14T06:09:38Z,42.805,6.029,13.2990,4.60048,2470.156,2020-6-14T08:10:22Z
2020-06-14T06:12:41Z,42.805,6.029,13.2990,4.60021,2470.147,2020-6-14T08:13:25Z
2020-06-14T06:15:44Z,42.805,6.029,13.2991,4.60033,2470.156,2020-6-14T08:16:29Z
2020-06-14T06:18:48Z,42.805,6.029,13.2986,4.60029,2470.156,2020-6-14T08:19:32Z
2020-06-14T06:21:51Z,42.805,6.029,13.3023,4.60041,2470.147,2020-6-14T08:22:35Z
2020-06-14T06:24:54Z,42.805,6.029,13.3000,4.60044,2470.11,2020-6-14T08:25:38Z
2020-06-14T06:27:57Z,42.805,6.029,13.3011,4.60041,2470.133,2020-6-14T08:28:42Z
2020-06-14T06:31:01Z,42.805,6.029,13.2996,4.60029,2470.11,2020-6-14T08:31:45Z
2020-06-14T06:34:04Z,42.805,6.029,13.3017,4.60028,2470.156,2020-6-14T08:34:48Z
2020-06-14T06:37:07Z,42.805,6.029,13.2990,4.60024,2470.147,2020-6-14T08:37:51Z
2020-06-14T06:40:10Z,42.805,6.029,13.3005,4.60029,2470.087,2020-6-14T08:40:55Z
2020-06-14T06:43:14Z,42.805,6.029,13.2990,4.60021,2470.087,2020-6-14T08:43:58Z
2020-06-14T06:46:17Z,42.805,6.029,13.2985,4.60038,2470.147,2020-6-14T08:47:01Z
2020-06-14T06:49:20Z,42.805,6.029,13.3000,4.60031,2470.124,2020-6-14T08:50:04Z
2020-06-14T06:52:23Z,42.805,6.029,13.2998,4.60046,2470.171,2020-6-14T08:53:08Z
2020-06-14T06:55:26Z,42.805,6.029,13.3004,4.60044,2470.1,2020-6-14T08:56:11Z
2020-06-14T06:58:30Z,42.805,6.029,13.2996,4.60029,2470.133,2020-6-14T08:59:14Z
2020-06-14T07:01:33Z,42.805,6.029,13.3015,4.60046,2470.11,2020-6-14T09:02:17Z
2020-06-14T07:04:36Z,42.805,6.029,13.2990,4.60046,2470.133,2020-6-14T09:05:20Z
2020-06-14T07:07:39Z,42.805,6.029,13.3004,4.60039,2470.1,2020-6-14T09:08:24Z
2020-06-14T07:10:43Z,42.805,6.029,13.3009,4.60032,2470.124,2020-6-14T09:11:27Z
2020-06-14T07:13:46Z,42.805,6.029,13.3014,4.60022,2470.124,2020-6-14T09:14:30Z
2020-06-14T07:16:49Z,42.805,6.029,13.3008,4.60036,2470.11,2020-6-14T09:17:33Z
2020-06-14T07:19:52Z,42.805,6.029,13.2993,4.60038,2470.184,2020-6-14T09:20:37Z
2020-06-14T07:22:55Z,42.805,6.029,13.2997,4.60041,2470.11,2020-6-14T09:23:40Z
2020-06-14T07:25:59Z,42.805,6.029,13.3011,4.60043,2470.124,2020-6-14T09:26:43Z
2020-06-14T07:29:02Z,42.805,6.029,13.3000,4.60059,2470.1,2020-6-14T09:29:46Z
2020-06-14T07:32:05Z,42.805,6.029,13.2994,4.60033,2470.1,2020-6-14T09:32:49Z
2020-06-14T07:35:08Z,42.805,6.029,13.3006,4.60042,2470.11,2020-6-14T09:35:53Z
2020-06-14T07:38:12Z,42.805,6.029,13.3014,4.60016,2470.11,2020-6-14T09:38:56Z
2020-06-14T07:41:15Z,42.805,6.029,13.3021,4.60017,2470.1,2020-6-14T09:41:59Z
2020-06-14T07:44:18Z,42.805,6.029,13.3006,4.60053,2470.11,2020-6-14T09:45:02Z
2020-06-14T07:47:21Z,42.805,6.029,13.3010,4.60033,2470.077,2020-6-14T09:48:06Z
2020-06-14T07:50:25Z,42.805,6.029,13.3012,4.60059,2470.077,2020-6-14T09:51:09Z
2020-06-14T07:53:28Z,42.805,6.029,13.2997,4.60035,2470.11,2020-6-14T09:54:12Z
2020-06-14T07:56:31Z,42.805,6.029,13.2996,4.60050,2470.11,2020-6-14T09:57:16Z
2020-06-14T07:59:35Z,42.805,6.029,13.3014,4.60005,2470.077,2020-6-14T10:00:19Z
2020-06-14T08:02:38Z,42.805,6.029,13.3001,4.60037,2470.1,2020-6-14T10:03:22Z
2020-06-14T08:05:41Z,42.805,6.029,13.2994,4.60029,2470.11,2020-6-14T10:06:25Z
2020-06-14T08:08:44Z,42.805,6.029,13.3013,4.60021,2470.087,2020-6-14T10:09:29Z
2020-06-14T08:11:48Z,42.805,6.029,13.3012,4.60037,2470.114,2020-6-14T10:12:32Z
2020-06-14T08:14:51Z,42.805,6.029,13.3015,4.60038,2470.087,2020-6-14T10:15:35Z
2020-06-14T08:17:54Z,42.805,6.029,13.3012,4.60033,2470.11,2020-6-14T10:18:39Z
2020-06-14T08:20:58Z,42.805,6.029,13.3007,4.60033,2470.11,2020-6-14T10:21:42Z
2020-06-14T08:24:01Z,42.805,6.029,13.2995,4.60035,2470.087,2020-6-14T10:24:45Z
2020-06-14T08:27:04Z,42.805,6.029,13.2996,4.60037,2470.11,2020-6-14T10:27:49Z
2020-06-14T08:30:07Z,42.805,6.029,13.3004,4.60026,2470.1,2020-6-14T10:30:52Z
2020-06-14T08:33:11Z,42.805,6.029,13.2996,4.60028,2470.04,2020-6-14T10:33:55Z
2020-06-14T08:36:14Z,42.805,6.029,13.2991,4.60052,2470.077,2020-6-14T10:36:58Z
2020-06-14T08:39:17Z,42.805,6.029,13.2977,4.60018,2470.1,2020-6-14T10:40:02Z
2020-06-14T08:42:20Z,42.805,6.029,13.3006,4.60015,2470.087,2020-6-14T10:43:05Z
2020-06-14T08:45:24Z,42.805,6.029,13.3003,4.60029,2470.04,2020-6-14T10:46:08Z
2020-06-14T08:48:27Z,42.805,6.029,13.3031,4.60057,2470.063,2020-6-14T10:49:11Z
2020-06-14T08:51:30Z,42.805,6.029,13.3022,4.60043,2470.077,2020-6-14T10:52:15Z
2020-06-14T08:54:34Z,42.805,6.029,13.2999,4.60049,2470.087,2020-6-14T10:55:18Z
2020-06-14T08:57:37Z,42.805,6.029,13.3006,4.60015,2470.077,2020-6-14T10:58:21Z
2020-06-14T09:00:40Z,42.805,6.029,13.2981,4.60039,2470.063,2020-6-14T11:01:24Z
2020-06-14T09:03:43Z,42.805,6.029,13.2998,4.60016,2470.063,2020-6-14T11:04:28Z
2020-06-14T09:06:46Z,42.805,6.029,13.3012,4.60041,2470.1,2020-6-14T11:07:31Z
2020-06-14T09:09:50Z,42.805,6.029,13.3000,4.60021,2470.077,2020-6-14T11:10:34Z
2020-06-14T09:12:53Z,42.805,6.029,13.2991,4.60042,2470.063,2020-6-14T11:13:37Z
2020-06-14T09:15:56Z,42.805,6.029,13.3019,4.60050,2470.087,2020-6-14T11:16:40Z
2020-06-14T09:18:59Z,42.805,6.029,13.2990,4.60001,2470.063,2020-6-14T11:19:44Z
2020-06-14T09:22:03Z,42.805,6.029,13.2996,4.59991,2470.087,2020-6-14T11:22:47Z
2020-06-14T09:25:06Z,42.805,6.029,13.2993,4.60003,2470.063,2020-6-14T11:25:50Z
2020-06-14T09:28:09Z,42.805,6.029,13.3002,4.60028,2470.087,2020-6-14T11:28:54Z
2020-06-14T09:31:13Z,42.805,6.029,13.2993,4.59989,2470.04,2020-6-14T11:31:57Z
2020-06-14T09:34:16Z,42.805,6.029,13.3005,4.60052,2470.1,2020-6-14T11:35:00Z
2020-06-14T09:37:19Z,42.805,6.029,13.3027,4.60026,2470.124,2020-6-14T11:38:04Z
2020-06-14T09:40:22Z,42.805,6.029,13.2999,4.60032,2470.077,2020-6-14T11:41:07Z
2020-06-14T09:43:26Z,42.805,6.029,13.2991,4.59998,2470.04,2020-6-14T11:44:10Z
2020-06-14T09:46:29Z,42.805,6.029,13.3006,4.60011,2470.087,2020-6-14T11:47:13Z
2020-06-14T09:49:32Z,42.805,6.029,13.3008,4.60039,2470.087,2020-6-14T11:50:17Z
2020-06-14T09:52:36Z,42.805,6.029,13.2998,4.60058,2470.063,2020-6-14T11:53:20Z
2020-06-14T09:55:39Z,42.805,6.029,13.2996,4.60023,2470.1,2020-6-14T11:56:23Z
2020-06-14T09:58:42Z,42.805,6.029,13.3015,4.60008,2470.087,2020-6-14T11:59:26Z
2020-06-14T10:01:45Z,42.805,6.029,13.2999,4.60062,2470.087,2020-6-14T12:02:30Z
2020-06-14T10:04:49Z,42.805,6.029,13.2992,4.60037,2470.063,2020-6-14T12:05:33Z
2020-06-14T10:07:52Z,42.805,6.029,13.3022,4.60035,2470.077,2020-6-14T12:08:36Z
2020-06-14T10:10:55Z,42.805,6.029,13.2991,4.60029,2470.124,2020-6-14T12:11:39Z
2020-06-14T10:13:58Z,42.805,6.029,13.2994,4.60038,2470.1,2020-6-14T12:14:43Z
2020-06-14T10:17:02Z,42.805,6.029,13.2996,4.60003,2470.087,2020-6-14T12:17:46Z
2020-06-14T10:20:05Z,42.805,6.029,13.2996,4.60049,2470.063,2020-6-14T12:20:49Z
2020-06-14T10:23:08Z,42.805,6.029,13.3009,4.60024,2470.124,2020-6-14T12:23:52Z
2020-06-14T10:26:11Z,42.805,6.029,13.3018,4.60032,2470.053,2020-6-14T12:26:56Z
2020-06-14T10:29:15Z,42.805,6.029,13.3003,4.60023,2470.1,2020-6-14T12:29:59Z
2020-06-14T10:32:18Z,42.805,6.029,13.2991,4.60044,2470.087,2020-6-14T12:33:02Z
2020-06-14T10:35:21Z,42.805,6.029,13.2998,4.60025,2470.1,2020-6-14T12:36:05Z
2020-06-14T10:38:24Z,42.805,6.029,13.3014,4.60037,2470.053,2020-6-14T12:39:09Z
2020-06-14T10:41:28Z,42.805,6.029,13.3006,4.60049,2470.1,2020-6-14T12:42:12Z
2020-06-14T10:44:31Z,42.805,6.029,13.3022,4.60037,2470.11,2020-6-14T12:45:15Z
2020-06-14T10:47:34Z,42.805,6.029,13.3004,4.60022,2470.1,2020-6-14T12:48:18Z
2020-06-14T10:50:37Z,42.805,6.029,13.2989,4.60045,2470.1,2020-6-14T12:51:22Z
2020-06-14T10:53:41Z,42.805,6.029,13.2996,4.60037,2470.11,2020-6-14T12:54:25Z
2020-06-14T10:56:44Z,42.805,6.029,13.2975,4.60001,2470.077,2020-6-14T12:57:28Z
2020-06-14T10:59:47Z,42.805,6.029,13.2981,4.60010,2470.087,2020-6-14T13:00:32Z
2020-06-14T11:02:50Z,42.805,6.029,13.3006,4.60003,2470.1,2020-6-14T13:03:35Z
2020-06-14T11:05:54Z,42.805,6.029,13.3001,4.60033,2470.133,2020-6-14T13:06:38Z
2020-06-14T11:08:57Z,42.805,6.029,13.3001,4.60015,2470.11,2020-6-14T13:09:41Z
2020-06-14T11:12:00Z,42.805,6.029,13.2999,4.60018,2470.11,2020-6-14T13:12:45Z
2020-06-14T11:15:04Z,42.805,6.029,13.2994,4.60018,2470.11,2020-6-14T13:15:48Z
2020-06-14T11:18:07Z,42.805,6.029,13.3010,4.59990,2470.124,2020-6-14T13:18:51Z
2020-06-14T11:21:10Z,42.805,6.029,13.2996,4.60014,2470.087,2020-6-14T13:21:54Z
2020-06-14T11:24:13Z,42.805,6.029,13.2986,4.60020,2470.1,2020-6-14T13:24:57Z
2020-06-14T11:27:16Z,42.805,6.029,13.2992,4.60013,2470.087,2020-6-14T13:28:01Z
2020-06-14T11:30:20Z,42.805,6.029,13.3021,4.60036,2470.11,2020-6-14T13:31:04Z
2020-06-14T11:33:23Z,42.805,6.029,13.3018,4.60039,2470.063,2020-6-14T13:34:07Z
2020-06-14T11:36:26Z,42.805,6.029,13.3011,4.60026,2470.11,2020-6-14T13:37:11Z
2020-06-14T11:39:30Z,42.805,6.029,13.3024,4.60049,2470.087,2020-6-14T13:40:14Z
2020-06-14T11:42:33Z,42.805,6.029,13.3008,4.60032,2470.087,2020-6-14T13:43:17Z
2020-06-14T11:45:36Z,42.805,6.029,13.2996,4.60032,2470.124,2020-6-14T13:46:21Z
2020-06-14T11:48:39Z,42.805,6.029,13.3014,4.60006,2470.124,2020-6-14T13:49:24Z
2020-06-14T11:51:43Z,42.805,6.029,13.3018,4.60046,2470.124,2020-6-14T13:52:27Z
2020-06-14T11:54:46Z,42.805,6.029,13.3023,4.60023,2470.087,2020-6-14T13:55:30Z
2020-06-14T11:57:49Z,42.805,6.029,13.3000,4.60036,2470.11,2020-6-14T13:58:33Z
2020-06-14T12:00:52Z,42.805,6.029,13.2998,4.60033,2470.11,2020-6-14T14:01:37Z
2020-06-14T12:03:56Z,42.805,6.029,13.3001,4.60021,2470.124,2020-6-14T14:04:40Z
2020-06-14T12:06:59Z,42.805,6.029,13.3006,4.60031,2470.147,2020-6-14T14:07:43Z
2020-06-14T12:10:02Z,42.805,6.029,13.3001,4.60029,2470.063,2020-6-14T14:10:46Z
2020-06-14T12:13:05Z,42.805,6.029,13.2993,4.60052,2470.087,2020-6-14T14:13:50Z
2020-06-14T12:16:09Z,42.805,6.029,13.3000,4.59996,2470.124,2020-6-14T14:16:53Z
2020-06-14T12:19:12Z,42.805,6.029,13.3003,4.60033,2470.087,2020-6-14T14:19:56Z
2020-06-14T12:22:15Z,42.805,6.029,13.2990,4.60044,2470.1,2020-6-14T14:22:59Z
2020-06-14T12:25:18Z,42.805,6.029,13.3004,4.60035,2470.11,2020-6-14T14:26:03Z
2020-06-14T12:28:22Z,42.805,6.029,13.3004,4.60004,2470.133,2020-6-14T14:29:06Z
2020-06-14T12:31:25Z,42.805,6.029,13.2999,4.60026,2470.147,2020-6-14T14:32:09Z
2020-06-14T12:34:28Z,42.805,6.029,13.3013,4.60009,2470.147,2020-6-14T14:35:12Z
2020-06-14T12:37:31Z,42.805,6.029,13.3003,4.60054,2470.1,2020-6-14T14:38:15Z
2020-06-14T12:40:34Z,42.805,6.029,13.3004,4.60014,2470.133,2020-6-14T14:41:19Z
2020-06-14T12:43:38Z,42.805,6.029,13.2986,4.60004,2470.124,2020-6-14T14:44:22Z
2020-06-14T12:46:41Z,42.805,6.029,13.2993,4.60019,2470.11,2020-6-14T14:47:25Z
2020-06-14T12:49:44Z,42.805,6.029,13.3006,4.60027,2470.11,2020-6-14T14:50:29Z
2020-06-14T12:52:47Z,42.805,6.029,13.2982,4.60021,2470.11,2020-6-14T14:53:32Z
2020-06-14T12:55:51Z,42.805,6.029,13.3006,4.60014,2470.124,2020-6-14T14:56:35Z
2020-06-14T12:58:54Z,42.805,6.029,13.2986,4.60006,2470.11,2020-6-14T14:59:38Z
2020-06-14T13:01:57Z,42.805,6.029,13.3004,4.59990,2470.147,2020-6-14T15:02:41Z
2020-06-14T13:05:00Z,42.805,6.029,13.2990,4.60026,2470.133,2020-6-14T15:05:45Z
2020-06-14T13:08:04Z,42.805,6.029,13.3003,4.60044,2470.133,2020-6-14T15:08:48Z
2020-06-14T13:11:07Z,42.805,6.029,13.2990,4.60046,2470.124,2020-6-14T15:11:51Z
2020-06-14T13:14:10Z,42.805,6.029,13.2995,4.60033,2470.11,2020-6-14T15:14:55Z
2020-06-14T13:17:14Z,42.805,6.029,13.3001,4.60017,2470.11,2020-6-14T15:17:58Z
2020-06-14T13:20:17Z,42.805,6.029,13.3001,4.60054,2470.133,2020-6-14T15:21:01Z
2020-06-14T13:23:20Z,42.805,6.029,13.3000,4.60046,2470.11,2020-6-14T15:24:04Z
2020-06-14T13:26:23Z,42.805,6.029,13.3014,4.60011,2470.147,2020-6-14T15:27:08Z
2020-06-14T13:29:27Z,42.805,6.029,13.2993,4.60033,2470.147,2020-6-14T15:30:11Z
2020-06-14T13:32:30Z,42.805,6.029,13.2983,4.60050,2470.156,2020-6-14T15:33:14Z
2020-06-14T13:35:33Z,42.805,6.029,13.3014,4.60033,2470.124,2020-6-14T15:36:18Z
2020-06-14T13:38:36Z,42.805,6.029,13.3011,4.59999,2470.147,2020-6-14T15:39:21Z
2020-06-14T13:41:40Z,42.805,6.029,13.2983,4.60002,2470.147,2020-6-14T15:42:24Z
2020-06-14T13:44:43Z,42.805,6.029,13.2989,4.59994,2470.18,2020-6-14T15:45:27Z
2020-06-14T13:47:46Z,42.805,6.029,13.2995,4.60014,2470.133,2020-6-14T15:48:30Z
2020-06-14T13:50:49Z,42.805,6.029,13.2990,4.60008,2470.156,2020-6-14T15:51:34Z
2020-06-14T13:53:53Z,42.805,6.029,13.2994,4.60030,2470.133,2020-6-14T15:54:37Z
2020-06-14T13:56:56Z,42.805,6.029,13.3006,4.60020,2470.147,2020-6-14T15:57:40Z
2020-06-14T13:59:59Z,42.805,6.029,13.3004,4.60084,2470.133,2020-6-14T16:00:43Z
2020-06-14T14:03:02Z,42.805,6.029,13.3006,4.60058,2470.171,2020-6-14T16:03:47Z
2020-06-14T14:06:06Z,42.805,6.029,13.3014,4.60039,2470.147,2020-6-14T16:06:50Z
2020-06-14T14:09:09Z,42.805,6.029,13.3014,4.60026,2470.133,2020-6-14T16:09:53Z
2020-06-14T14:12:12Z,42.805,6.029,13.3005,4.60034,2470.1,2020-6-14T16:12:57Z
2020-06-14T14:15:16Z,42.805,6.029,13.2993,4.60008,2470.1,2020-6-14T16:16:00Z
2020-06-14T14:18:19Z,42.805,6.029,13.3006,4.60029,2470.133,2020-6-14T16:19:03Z
2020-06-14T14:21:22Z,42.805,6.029,13.3003,4.59984,2470.133,2020-6-14T16:22:06Z
2020-06-14T14:24:25Z,42.805,6.029,13.3009,4.60072,2470.133,2020-6-14T16:25:10Z
2020-06-14T14:27:29Z,42.805,6.029,13.2984,4.60037,2470.147,2020-6-14T16:28:13Z
2020-06-14T14:30:32Z,42.805,6.029,13.3004,4.60016,2470.124,2020-6-14T16:31:16Z
2020-06-14T14:33:35Z,42.805,6.029,13.3006,4.60062,2470.133,2020-6-14T16:34:19Z
2020-06-14T14:36:38Z,42.805,6.029,13.2997,4.60035,2470.124,2020-6-14T16:37:23Z
2020-06-14T14:39:41Z,42.805,6.029,13.2996,4.60056,2470.087,2020-6-14T16:40:26Z
2020-06-14T14:42:45Z,42.805,6.029,13.2997,4.60039,2470.087,2020-6-14T16:43:29Z
2020-06-14T14:45:48Z,42.805,6.029,13.2991,4.60031,2470.11,2020-6-14T16:46:32Z
2020-06-14T14:48:51Z,42.805,6.029,13.3000,4.60042,2470.11,2020-6-14T16:49:35Z
2020-06-14T14:51:54Z,42.805,6.029,13.3009,4.60046,2470.124,2020-6-14T16:52:39Z
2020-06-14T14:54:58Z,42.805,6.029,13.3000,4.60053,2470.147,2020-6-14T16:55:42Z
2020-06-14T14:58:01Z,42.805,6.029,13.3016,4.60046,2470.11,2020-6-14T16:58:45Z
2020-06-14T15:01:04Z,42.805,6.029,13.2999,4.60041,2470.1,2020-6-14T17:01:49Z
2020-06-14T15:04:07Z,42.805,6.029,13.3000,4.60069,2470.11,2020-6-14T17:04:52Z
2020-06-14T15:07:11Z,42.805,6.029,13.3019,4.60057,2470.147,2020-6-14T17:07:55Z
2020-06-14T15:10:14Z,42.805,6.029,13.2996,4.60059,2470.124,2020-6-14T17:10:58Z
2020-06-14T15:13:17Z,42.805,6.029,13.3017,4.60051,2470.133,2020-6-14T17:14:02Z